Dades meteomassalio
Diari Summary for Maig 8, 2017 Units:  Metric    English   Both
« Previous Day
Next Day »
Diari Semanal Mensual Anual Personalitzat
  Maxima: Minima: Mijana:
Temperatura: 27.3 °C 15.4 °C 22.1 °C
Rosada: 0.9 °C -2.9 °C -0.8 °C
Humitat: 36 % 14 % 23 %
Velocitat del vent: 35.4 km/h 0.0 km/h 6.4 km/h
Racha vent: 35.4 km/h - -
Vent:- - WNW
Pressio: 1014.1 hPa 1012.8 hPa -
Pluja: 0.0 mm    
Historical Graphs
 
 
Tabular Data for Maig 8, 2017
Time Temperature Dew Point Pressure Wind Wind Speed Wind Gust Humidity Rainfall Rate (Hourly) solar Conditions
18:16 26.7 °C -1.2 °C 1013.1 hPa NNW 35.4 km/h 35.4 km/h 16 % 0.0 mm 397.0 W/m2 OVC
18:21 26.7 °C -1.2 °C 1013.1 hPa NW 18.5 km/h 18.5 km/h 16 % 0.0 mm 497.0 W/m2 CLR
18:26 26.8 °C -1.1 °C 1013.1 hPa North 18.5 km/h 18.5 km/h 16 % 0.0 mm 496.0 W/m2 CLR
18:31 27.1 °C -0.9 °C 1013.1 hPa NNE 18.5 km/h 18.5 km/h 16 % 0.0 mm 480.0 W/m2 CLR
18:36 27.1 °C -0.9 °C 1013.1 hPa NW 27.8 km/h 27.8 km/h 16 % 0.0 mm 429.0 W/m2 CLR
18:41 27.2 °C 0.1 °C 1012.8 hPa WNW 1.6 km/h 1.6 km/h 17 % 0.0 mm 353.0 W/m2 CLR
18:46 27.3 °C -1.6 °C 1012.8 hPa NNW 18.5 km/h 18.5 km/h 15 % 0.0 mm 341.0 W/m2 CLR
18:51 27.2 °C -1.7 °C 1012.8 hPa WNW 16.7 km/h 16.7 km/h 15 % 0.0 mm 406.0 W/m2 CLR
18:56 27.2 °C -1.7 °C 1012.8 hPa NW 14.5 km/h 14.5 km/h 15 % 0.0 mm 320.0 W/m2 CLR
19:01 26.9 °C -1.9 °C 1012.8 hPa NNW 22.2 km/h 22.2 km/h 15 % 0.0 mm 294.0 W/m2 CLR
19:06 26.8 °C -2.0 °C 1012.8 hPa NW 22.2 km/h 22.2 km/h 15 % 0.0 mm 332.0 W/m2 CLR
19:11 26.8 °C -2.0 °C 1012.8 hPa NNW 4.8 km/h 4.8 km/h 15 % 0.0 mm 306.0 W/m2 CLR
19:16 27.1 °C -1.8 °C 1012.8 hPa NNE 4.8 km/h 4.8 km/h 15 % 0.0 mm 287.0 W/m2 CLR
19:21 27.1 °C -2.8 °C 1012.8 hPa NW 9.3 km/h 9.3 km/h 14 % 0.0 mm 274.0 W/m2 CLR
19:26 26.9 °C -2.9 °C 1012.8 hPa NW 18.5 km/h 18.5 km/h 14 % 0.0 mm 237.0 W/m2 CLR
19:31 26.7 °C -2.1 °C 1013.1 hPa NNW 19.3 km/h 19.3 km/h 15 % 0.0 mm 169.0 W/m2 CLR
19:37 26.3 °C -2.4 °C 1012.8 hPa NNW 13.0 km/h 13.0 km/h 15 % 0.0 mm 121.0 W/m2 CLR
19:42 26.3 °C -1.6 °C 1012.8 hPa NNW 5.6 km/h 5.6 km/h 16 % 0.0 mm 176.0 W/m2 CLR
19:47 26.3 °C -1.6 °C 1013.1 hPa NW 14.8 km/h 14.8 km/h 16 % 0.0 mm 142.0 W/m2 CLR
19:52 26.0 °C -1.8 °C 1013.1 hPa NW 14.8 km/h 14.8 km/h 16 % 0.0 mm 98.0 W/m2 CLR
19:57 25.8 °C -1.9 °C 1013.1 hPa NW 18.5 km/h 18.5 km/h 16 % 0.0 mm 90.0 W/m2 CLR
20:02 25.7 °C -2.1 °C 1013.1 hPa NW 22.2 km/h 22.2 km/h 16 % 0.0 mm 72.0 W/m2 FEW
20:07 25.5 °C -2.2 °C 1013.1 hPa NW 18.5 km/h 18.5 km/h 16 % 0.0 mm 67.0 W/m2 FEW
20:12 25.3 °C -2.3 °C 1013.1 hPa NW 18.5 km/h 18.5 km/h 16 % 0.0 mm 62.0 W/m2 SCT
20:17 25.2 °C -1.6 °C 1013.1 hPa NNW 16.7 km/h 16.7 km/h 17 % 0.0 mm 62.0 W/m2 SCT
20:22 25.1 °C -1.7 °C 1013.1 hPa NW 14.8 km/h 14.8 km/h 17 % 0.0 mm 54.0 W/m2 SCT
20:27 24.9 °C -1.1 °C 1013.1 hPa NW 7.4 km/h 7.4 km/h 18 % 0.0 mm 46.0 W/m2 SCT
20:32 24.8 °C -1.1 °C 1013.1 hPa NW 5.6 km/h 5.6 km/h 18 % 0.0 mm 39.0 W/m2 BKN
20:37 24.6 °C -1.3 °C 1013.1 hPa Calm     18 % 0.0 mm 33.0 W/m2 BKN
20:42 24.4 °C -1.5 °C 1013.1 hPa Calm     18 % 0.0 mm 25.0 W/m2 BKN
20:47 24.1 °C -1.8 °C 1013.1 hPa Calm     18 % 0.0 mm 18.0 W/m2 BKN
20:52 23.8 °C -1.2 °C 1013.1 hPa NW 5.6 km/h 5.6 km/h 19 % 0.0 mm 11.0 W/m2 BKN
20:57 23.7 °C -1.3 °C 1013.1 hPa Calm     19 % 0.0 mm 7.0 W/m2 BKN
21:02 23.5 °C -1.5 °C 1013.1 hPa Calm     19 % 0.0 mm 0.0 W/m2 OVC
21:07 23.2 °C -1.1 °C 1013.1 hPa Calm     20 % 0.0 mm 0.0 W/m2 OVC
21:12 22.9 °C -1.2 °C 1013.1 hPa Calm     20 % 0.0 mm 0.0 W/m2 OVC
21:17 22.7 °C -1.4 °C 1013.1 hPa Calm     20 % 0.0 mm 0.0 W/m2 CLR
21:22 22.1 °C -1.3 °C 1013.4 hPa Calm     21 % 0.0 mm 0.0 W/m2 CLR
21:27 21.8 °C -1.5 °C 1013.4 hPa Calm     21 % 0.0 mm 0.0 W/m2 CLR
21:32 21.6 °C -1.1 °C 1013.4 hPa Calm     22 % 0.0 mm 0.0 W/m2 CLR
21:37 21.2 °C -0.8 °C 1013.4 hPa Calm     23 % 0.0 mm 0.0 W/m2 CLR
21:42 20.8 °C 0.0 °C 1013.4 hPa Calm     25 % 0.0 mm 0.0 W/m2 CLR
21:47 20.4 °C -0.8 °C 1013.4 hPa Calm     24 % 0.0 mm 0.0 W/m2 CLR
21:52 20.1 °C -1.2 °C 1013.4 hPa Calm     24 % 0.0 mm 0.0 W/m2 CLR
21:57 19.9 °C -0.2 °C 1013.4 hPa Calm     26 % 0.0 mm 0.0 W/m2 CLR
22:02 19.6 °C 0.1 °C 1013.4 hPa Calm     27 % 0.0 mm 0.0 W/m2 CLR
22:07 19.3 °C -0.2 °C 1013.8 hPa Calm     27 % 0.0 mm 0.0 W/m2 CLR
22:12 19.0 °C 0.1 °C 1013.8 hPa Calm     28 % 0.0 mm 0.0 W/m2 CLR
22:17 18.7 °C -0.2 °C 1013.8 hPa Calm     28 % 0.0 mm 0.0 W/m2 CLR
22:22 18.6 °C -0.8 °C 1013.8 hPa Calm     27 % 0.0 mm 0.0 W/m2 CLR
22:27 18.6 °C -0.8 °C 1013.8 hPa Calm     27 % 0.0 mm 0.0 W/m2 CLR
22:32 18.6 °C 0.6 °C 1013.8 hPa Calm     30 % 0.0 mm 0.0 W/m2 CLR
22:37 18.2 °C 0.3 °C 1013.8 hPa Calm     30 % 0.0 mm 0.0 W/m2 CLR
22:42 17.8 °C 0.9 °C 1013.8 hPa Calm     32 % 0.0 mm 0.0 W/m2 CLR
22:43 17.8 °C 0.8 °C 1014.1 hPa Calm     32 % 0.0 mm 0.0 W/m2 CLR
22:48 17.3 °C 0.4 °C 1013.8 hPa Calm     32 % 0.0 mm 0.0 W/m2 CLR
22:53 17.0 °C 0.6 °C 1014.1 hPa Calm     33 % 0.0 mm 0.0 W/m2 CLR
22:58 16.7 °C 0.7 °C 1014.1 hPa Calm     34 % 0.0 mm 0.0 W/m2 CLR
23:03 16.4 °C 0.5 °C 1014.1 hPa Calm     34 % 0.0 mm 0.0 W/m2 CLR
23:08 16.3 °C 0.4 °C 1014.1 hPa Calm     34 % 0.0 mm 0.0 W/m2 CLR
23:13 16.2 °C 0.3 °C 1014.1 hPa Calm     34 % 0.0 mm 0.0 W/m2 CLR
23:18 15.9 °C 0.5 °C 1014.1 hPa Calm     35 % 0.0 mm 0.0 W/m2 CLR
23:23 15.8 °C 0.8 °C 1014.1 hPa Calm     36 % 0.0 mm 0.0 W/m2 CLR
23:28 15.7 °C 0.6 °C 1014.1 hPa Calm     36 % 0.0 mm 0.0 W/m2 CLR
23:33 15.6 °C 0.5 °C 1014.1 hPa Calm     36 % 0.0 mm 0.0 W/m2 CLR
23:38 15.5 °C 0.5 °C 1014.1 hPa Calm     36 % 0.0 mm 0.0 W/m2 CLR
23:43 15.4 °C 0.4 °C 1014.1 hPa Calm     36 % 0.0 mm 0.0 W/m2 CLR
23:48 15.4 °C 0.0 °C 1014.1 hPa Calm     35 % 0.0 mm 0.0 W/m2 CLR
23:53 15.4 °C 0.1 °C 1014.1 hPa Calm     35 % 0.0 mm 0.0 W/m2 CLR
23:58 15.6 °C 0.1 °C 1014.1 hPa Calm     35 % 0.0 mm 0.0 W/m2 CLR
Lo Temps de Massalio
Compliments of Weather Underground - 512 kb